Find Zi Yuan 1-02

NORAD ID: 28057 Int'l Des: 2003-049 Owner: ZZWYZ/INPE Country: CN operational
LEOCIRCULARRETROGRADESSO

Current View

Loading 3D Globe...

About Zi Yuan 1-02

Zi Yuan 1-02 (NORAD 28057) is a satellite launched Oct 21, 2003 by ZZWYZ/INPE of CN. It operates in LEO, CIRCULAR, RETROGRADE, SSO orbit with a mass of 1450.00 kg.

Upcoming Passes

Passes for default location (London). Set your location on the main map for personalized predictions.

Altitude History

Loading altitude history...

Two-Line Element Set

1 28057U 03049A 26194.51523647 .00000084 00000-0 43952-4 0 9992
2 28057 98.7570 166.8199 0002063 83.9304 276.2116 14.36754936190966
Epoch: Jul 13, 2026 • Age: 14 hours

Current Status

Altitude 776.5 km
Apogee / Perigee N/A
Velocity 7.47 km/s
Sub-Earth Point 52.76°N, 165.96°W
Launch Date Oct 21, 2003
Age 22.7 years
Type other

Technical Details

Classification Payload
Mass 1450.00 kg
Dry Mass 1400.00 kg
Total Mass 1450.00 kg
Length 1.80 m
Diameter 2.00 m
Span 9.00 m
Shape Box + Pan
Manufacturer CAST/INPE
Bus Type ZY
Phase Status In Orbit
Owner/State ZZWYZ/INPE/CN

Most Searched